Change the Weather History Date:

Tuesday, February 5, 2013

  Actual Average Record
Temperature  
Mean Temperature 38 °F -  
Max Temperature 44 °F 42 °F 55 °F (1993)
Min Temperature 33 °F 31 °F 15 °F (1972)
Degree Days  
Heating Degree Days 26    
Moisture  
Dew Point 36 °F    
Average Humidity 92    
Maximum Humidity 100    
Minimum Humidity 76    
Precipitation  
Precipitation 0.50 in - - ()
Sea Level Pressure  
Sea Level Pressure 29.42 in    
Wind  
Wind Speed 3 mph (SW)    
Max Wind Speed 17 mph    
Max Gust Speed 34 mph    
Visibility 9 miles    
Events Rain    
Averages and records for this station are not official NWS values.
T = Trace of Precipitation, MM = Missing Value Source: NWS Daily Summary

Daily Weather History Graph

Daily Weather History Graph

Search for Another Location

Airport or City:

Trip Planner

Search our weather history database for the weather conditions in past years. The results will help you decide how hot, cold, wet, or windy it might be!

Date:

Astronomy

Feb. 05, 2013 Rise Set
Actual Time 7:30 AM AKST 4:32 PM AKST
Civil Twilight 6:50 AM AKST 5:11 PM AKST
Nautical Twilight 6:07 AM AKST 5:55 PM AKST
Astronomical Twilight 5:24 AM AKST 6:37 PM AKST
Moon 3:41 AM AKST (2/5) 11:34 AM AKST (2/5)
Length of Visible Light 10h 20m
Length of Day
9h 01m
Waning Crescent, 25% of the Moon is Illuminated
Feb 5
Waning Crescent
Feb 9
New
Feb 17
First Quarter
Feb 25
Full
Mar 4
Last Quarter

Hourly Weather History & Observations

Time (AKST) Temp. Windchill Dew Point Humidity Pressure Visibility Wind Dir Wind Speed Gust Speed Precip Events Conditions
12:13 AM 33.8 °F - 33.8 °F 100% 29.48 in 10.0 mi Calm Calm - 0.00 in Rain Light Rain
12:34 AM 33.8 °F - 33.8 °F 100% 29.47 in 8.0 mi Calm Calm - 0.01 in Rain Light Rain
12:53 AM 35.1 °F 32.2 °F 34.0 °F 96% 29.47 in 10.0 mi NW 3.5 mph - 0.02 in Rain Light Rain
1:27 AM 35.6 °F - 33.8 °F 93% 29.45 in 7.0 mi Calm Calm - 0.05 in Rain Rain
1:53 AM 36.0 °F 32.1 °F 35.1 °F 97% 29.44 in 6.0 mi NNW 4.6 mph - 0.10 in Rain Rain
2:27 AM 35.6 °F 32.8 °F 35.6 °F 100% 29.42 in 10.0 mi NW 3.5 mph - 0.03 in Rain Light Rain
2:53 AM 36.0 °F - 35.1 °F 97% 29.41 in 10.0 mi Calm Calm - 0.05 in Rain Light Rain
3:19 AM 35.6 °F 32.8 °F 35.6 °F 100% 29.40 in 9.0 mi WNW 3.5 mph - 0.02 in Rain Light Rain
3:33 AM 35.6 °F - 35.6 °F 100% 29.39 in 8.0 mi Calm Calm - 0.03 in Rain Light Rain
3:53 AM 37.0 °F 34.5 °F 35.1 °F 93% 29.39 in 9.0 mi NW 3.5 mph - 0.05 in Rain Light Rain
4:53 AM 37.0 °F 33.3 °F 35.1 °F 93% 29.37 in 10.0 mi NW 4.6 mph - 0.03 in Rain Light Rain
5:53 AM 37.9 °F 33.5 °F 35.1 °F 89% 29.35 in 10.0 mi WNW 5.8 mph - 0.00 in   Overcast
6:53 AM 39.9 °F 36.7 °F 35.1 °F 83% 29.36 in 10.0 mi Variable 4.6 mph - 0.00 in   Overcast
7:53 AM 41.0 °F 35.8 °F 34.0 °F 76% 29.37 in 10.0 mi South 8.1 mph 23.0 mph N/A   Overcast
8:24 AM 41.0 °F 32.5 °F 35.6 °F 81% 29.37 in 10.0 mi South 17.3 mph 34.5 mph N/A   Overcast
8:53 AM 41.0 °F 34.3 °F 35.6 °F 81% 29.38 in 10.0 mi SSE 11.5 mph 17.3 mph N/A Rain Light Rain
9:53 AM 39.9 °F 33.4 °F 36.0 °F 86% 29.41 in 10.0 mi South 10.4 mph 20.7 mph 0.01 in Rain Light Rain
10:53 AM 39.9 °F 32.5 °F 37.0 °F 89% 29.42 in 10.0 mi SE 12.7 mph 16.1 mph 0.06 in Rain Light Rain
11:53 AM 41.0 °F 36.4 °F 37.0 °F 86% 29.43 in 10.0 mi South 6.9 mph - 0.03 in   Overcast
12:53 PM 42.1 °F 38.4 °F 37.9 °F 85% 29.43 in 10.0 mi South 5.8 mph - N/A   Overcast
1:53 PM 44.1 °F 40.8 °F 37.0 °F 76% 29.43 in 10.0 mi South 5.8 mph - N/A   Overcast
2:53 PM 41.0 °F 39.0 °F 39.0 °F 93% 29.44 in 5.0 mi Variable 3.5 mph - 0.02 in Rain Light Rain
3:00 PM 41.0 °F 39.0 °F 37.4 °F 87% 29.44 in 6.0 mi Variable 3.5 mph - 0.01 in Rain Light Rain
3:53 PM 41.0 °F - 39.0 °F 93% 29.44 in 10.0 mi Calm Calm - 0.02 in   Overcast
4:53 PM 39.9 °F - 39.0 °F 97% 29.44 in 10.0 mi Calm Calm - 0.01 in Rain Light Rain
5:53 PM 39.9 °F - 37.9 °F 93% 29.44 in 10.0 mi Calm Calm - 0.03 in Rain Light Rain
6:53 PM 39.9 °F - 37.9 °F 93% 29.44 in 10.0 mi Calm Calm - 0.04 in Rain Light Rain
7:53 PM 39.0 °F - 37.9 °F 96% 29.45 in 10.0 mi Calm Calm - 0.02 in   Overcast
8:53 PM 39.0 °F - 37.0 °F 93% 29.45 in 10.0 mi Calm Calm - 0.01 in   Overcast
9:53 PM 37.9 °F - 37.0 °F 97% 29.45 in 10.0 mi Calm Calm - N/A   Overcast
10:53 PM 37.9 °F - 37.0 °F 97% 29.47 in 10.0 mi Calm Calm - N/A   Overcast
11:53 PM 37.9 °F - 37.0 °F 97% 29.48 in 10.0 mi Calm Calm - 0.00 in Rain Light Rain